RH
40 37 36 35 35 35 35 34 33 31 31 30 29 29 29 29 29 28 27 25 23 22 21 20 19 18 16 15 13 12 11 9 7 5 5 5 5 6 5 4 2 2 2 1 1 1 1 1 1 1 1 1 1 1 1 1 1 1 1 1 1 1 1 1 1 1 1 1 1 1 1 1 1 1 1 1 1 2 2 2 2 2 3 3 3 4 4 4 4 4 4 4 4 4 5 5 5
39 36 35 34 34 33 32 32 31 29 30 28 24 24 25 26 26 25 25 24 22 21 21 20 18 17 15 14 12 11 10 7 5 5 6 5 5 5 3 2 1 2 1 1 1 1 1 1 1 1 1 2 1 1 1 1 1 1 1 2 2 2 2 2 2 2 2 2 2 2 2 2 2 2 2 1 1 1 1 2 2 2 2 2 3 3 3 4 4 4 5 5 5 5 5 5 5
38 35 33 32 32 31 30 30 29 28 28 25 21 22 24 24 24 23 23 22 22 21 20 18 17 15 14 13 11 10 8 6 7 7 7 5 4 3 2 1 2 1 1 1 1 2 2 2 2 2 2 2 2 2 2 2 2 2 3 3 3 3 3 3 3 3 2 3 2 2 3 2 2 2 2 2 2 2 2 2 2 2 2 2 2 2 2 3 3 3 4 4 5 5 5 5 5
38 34 33 31 30 29 29 28 27 26 24 22 20 21 22 22 22 22 22 21 20 19 17 16 15 14 13 12 10 8 6 7 9 8 6 4 2 2 1 2 1 1 2 2 2 2 2 3 3 3 3 3 4 4 4 4 4 4 4 5 5 5 5 4 4 4 4 4 4 4 4 4 4 3 3 3 3 3 2 2 2 2 2 2 2 2 2 2 2 3 3 3 4 5 5 5 5
37 33 32 30 29 28 27 26 24 23 20 20 20 19 19 20 20 20 19 18 17 16 15 14 14 13 12 10 7 6 7 9 9 7 4 2 2 1 2 2 2 2 2 2 3 3 3 4 4 4 5 5 5 6 6 6 6 6 6 6 6 6 6 6 6 6 6 6 6 6 6 5 5 5 5 5 4 4 4 4 3 3 2 2 2 2 2 2 2 2 2 2 3 3 4 4 4
35 32 30 29 27 26 24 23 21 19 17 18 18 17 18 18 18 17 16 16 15 14 14 14 13 12 9 7 5 7 9 9 7 4 2 2 2 1 2 2 2 2 3 4 4 4 5 5 5 5 6 6 6 6 7 7 7 7 7 7 7 7 7 7 7 7 7 7 7 7 7 7 7 7 6 6 6 6 6 5 5 4 4 3 3 3 2 2 2 2 2 2 2 2 3 3 3
33 29 27 25 24 22 21 20 18 16 15 16 17 16 16 16 16 15 14 14 14 13 13 12 11 9 7 6 7 10 10 7 5 3 2 2 2 2 2 2 2 3 4 4 4 5 5 6 6 6 6 6 7 7 7 7 7 7 7 7 7 7 7 7 7 7 7 7 7 7 7 7 7 7 7 7 7 7 7 7 6 6 6 5 5 4 4 3 3 3 3 3 3 3 2 2 2
29 26 24 23 21 20 19 18 16 16 15 15 16 15 15 15 15 14 14 14 13 12 11 9 8 6 7 8 9 11 8 5 3 2 2 2 2 2 2 3 3 4 4 4 5 5 6 6 6 6 6 6 6 6 6 6 6 6 6 6 6 6 6 6 6 7 7 7 7 7 7 7 7 7 7 7 7 7 7 7 7 7 7 7 6 6 5 5 5 4 4 4 4 3 3 3 3
28 25 23 21 19 18 18 17 16 16 16 16 16 15 14 14 14 14 14 13 12 11 8 7 6 7 9 10 10 9 6 3 3 2 2 2 2 2 3 3 3 4 4 4 5 5 6 6 6 6 6 6 6 6 6 6 6 6 6 6 6 6 6 6 6 6 6 6 7 7 7 7 7 7 7 7 7 7 7 7 7 7 7 7 7 7 7 6 6 6 5 5 5 4 4 4 4
27 25 22 20 19 18 17 17 16 16 16 16 15 14 14 14 13 13 13 12 10 8 7 6 7 9 9 8 8 7 4 2 2 2 2 2 2 3 3 3 3 4 4 4 5 5 5 5 5 5 5 6 6 6 6 6 6 6 6 6 6 6 6 5 5 5 6 6 6 6 6 6 6 7 7 7 7 7 7 7 7 7 7 7 7 7 7 7 7 7 7 6 6 6 5 5 5
25 22 21 20 18 18 17 17 16 16 15 15 14 13 13 13 13 13 12 10 8 8 8 8 8 10 8 6 7 6 3 2 2 2 2 3 3 3 3 4 4 4 4 4 4 5 5 5 5 5 5 5 5 5 5 5 5 5 5 5 6 5 5 5 5 5 5 5 5 6 6 6 6 6 6 6 6 6 7 7 7 7 7 7 7 7 7 7 7 7 7 7 7 6 6 6 6
22 21 20 19 17 17 16 16 15 14 14 13 13 13 13 13 12 11 10 9 9 10 11 11 10 8 6 5 5 4 3 2 2 2 3 3 3 3 3 4 4 4 4 4 4 4 4 4 5 5 5 5 5 5 5 5 5 5 5 5 5 5 5 5 5 5 5 5 5 5 5 5 5 6 6 6 6 6 6 6 6 6 7 7 7 7 7 7 7 7 7 7 7 7 7 7 7
21 19 18 17 16 16 15 15 14 14 12 12 13 12 12 12 11 10 9 9 10 12 12 11 8 6 4 3 4 3 3 2 2 3 3 3 3 3 3 3 3 3 4 3 4 4 4 4 4 5 5 5 5 5 5 5 5 5 5 5 5 5 5 5 5 5 5 5 5 5 5 5 5 5 5 5 6 5 6 5 5 5 6 6 6 6 6 7 7 7 7 7 7 7 7 7 7
20 17 16 15 14 14 14 15 15 15 12 11 13 12 11 10 9 9 8 9 12 13 11 9 7 5 3 3 3 3 3 3 3 3 3 3 3 3 3 3 3 3 3 3 3 3 3 4 4 4 4 4 4 4 5 5 5 5 5 5 5 5 5 5 5 5 5 5 5 5 5 5 5 5 5 5 5 5 5 5 5 5 5 5 5 6 6 6 6 7 7 7 7 7 7 7 7
20 17 16 14 13 13 13 14 14 13 11 10 11 10 9 9 9 9 10 11 13 14 11 9 8 4 3 3 3 3 3 3 3 3 3 3 3 3 3 3 3 3 3 3 3 3 3 3 3 3 3 4 4 4 4 4 5 4 5 5 5 5 5 5 5 5 5 5 5 5 5 5 5 5 5 5 5 5 5 5 5 5 5 5 5 5 5 5 5 6 6 6 6 7 7 7 7
17 16 15 13 11 11 12 12 11 10 10 8 9 9 9 12 14 11 12 12 12 13 11 9 6 4 4 3 4 3 3 4 3 3 3 3 3 3 3 3 3 3 3 2 3 2 2 3 3 3 3 3 3 3 3 4 4 4 4 4 5 5 4 5 5 5 5 5 5 5 5 5 5 5 5 5 5 5 5 5 5 5 5 5 5 5 5 5 5 5 5 5 6 6 6 6 6
12 12 11 10 9 9 9 9 9 9 8 9 12 12 12 17 18 14 14 13 12 12 11 8 5 5 5 4 4 4 4 4 4 4 3 3 3 3 3 3 3 3 2 2 2 2 2 2 2 2 2 3 3 3 3 3 3 3 4 4 4 4 4 4 4 5 4 5 5 5 5 5 5 5 5 5 5 5 5 5 5 5 5 5 5 5 5 5 5 5 5 5 5 5 5 6 6
10 9 8 8 8 7 8 8 9 9 10 14 17 17 15 17 16 14 13 11 10 9 7 6 5 6 5 4 4 3 4 4 3 3 3 3 3 3 3 3 3 3 3 2 2 2 2 2 2 3 2 3 2 3 3 3 3 3 3 3 3 4 4 4 4 4 4 4 4 4 5 5 5 5 5 5 5 5 5 5 5 5 5 5 5 5 5 5 5 5 5 5 5 5 5 5 5
8 7 7 7 7 9 10 11 13 14 15 18 18 16 14 13 11 10 8 6 6 5 5 5 5 5 4 4 3 3 4 3 3 3 3 3 3 3 3 3 3 3 3 3 3 2 2 3 3 3 3 3 3 3 3 3 3 3 3 3 3 4 3 4 4 4 4 4 4 4 4 4 5 4 5 5 5 5 5 5 5 5 5 5 6 6 5 5 5 5 5 5 5 5 5 5 5
8 8 9 11 12 16 17 17 18 17 16 14 12 10 8 7 6 5 5 4 4 4 5 5 5 5 5 5 4 3 3 3 4 3 3 3 3 3 3 3 3 3 3 3 3 3 3 3 3 3 3 3 3 3 3 3 3 3 3 3 4 4 4 4 4 4 4 4 4 4 4 4 4 4 5 5 5 5 5 5 5 5 5 5 5 6 6 6 6 6 6 6 6 5 5 5 5
16 16 17 18 18 19 18 17 15 12 10 8 6 6 5 5 5 5 5 5 6 7 6 6 6 7 7 7 6 5 5 5 6 6 6 6 5 5 5 5 5 4 4 4 4 4 4 4 4 4 3 3 4 3 3 4 3 3 3 4 4 4 4 4 4 4 4 4 4 4 4 5 4 4 5 5 5 5 5 5 5 5 5 5 5 5 5 6 6 6 6 6 6 6 6 6 6
18 17 16 15 15 13 12 10 8 6 5 5 5 5 6 7 7 8 8 8 8 8 8 8 9 9 9 9 8 8 8 8 8 8 8 8 8 8 8 7 7 7 7 7 6 6 6 5 5 5 5 4 4 4 4 4 4 4 4 4 4 4 4 4 4 4 4 4 4 4 4 4 5 5 5 5 5 5 5 5 5 5 5 5 5 5 5 5 5 5 6 6 6 6 6 6 6
10 10 9 8 8 7 7 7 6 7 7 8 8 8 9 8 8 9 9 8 8 8 8 8 8 8 8 8 8 8 8 9 9 9 9 9 9 8 8 8 7 8 8 7 6 6 6 6 6 6 6 6 5 5 5 5 5 5 5 5 5 6 6 5 5 5 5 5 5 5 5 5 5 5 5 5 5 5 5 5 5 5 5 5 5 6 5 5 5 5 6 6 6 6 6 6 6
7 7 7 7 8 8 9 9 9 9 10 9 9 9 9 7 6 7 7 6 6 7 7 6 6 7 7 7 7 7 8 8 8 9 9 9 8 8 7 7 6 6 6 5 5 5 5 5 5 6 6 6 6 6 6 6 6 6 6 6 7 7 6 6 6 6 6 6 6 6 5 5 5 5 5 5 5 5 5 5 5 6 6 6 6 6 6 6 6 6 6 6 6 6 6 6 7
11 10 10 11 11 11 11 11 10 9 8 7 7 7 7 6 6 6 6 6 6 6 6 6 6 6 6 6 6 6 6 7 7 7 7 7 7 7 6 6 6 5 5 5 5 5 5 5 5 5 5 6 6 6 6 7 7 7 7 8 9 8 7 8 8 8 8 8 7 7 7 6 6 6 6 6 6 6 6 6 6 6 6 6 6 7 7 7 7 7 7 7 7 7 7 7 7
12 12 11 11 10 9 8 8 7 6 6 6 6 6 6 6 6 6 6 5 5 5 5 5 5 5 5 5 5 5 5 5 5 5 5 5 5 5 5 6 6 5 5 5 6 6 6 6 7 7 7 7 7 7 7 8 9 9 10 11 10 9 10 10 10 10 11 11 10 10 9 8 8 7 7 7 7 7 7 7 7 7 7 8 8 8 8 8 8 8 8 8 8 8 8 8 8
9 9 8 7 6 6 6 6 6 6 6 6 6 5 5 5 5 5 5 5 5 4 4 4 4 4 4 4 4 4 4 4 4 4 4 4 4 4 4 4 4 5 5 5 5 6 6 6 7 7 7 8 8 8 9 10 11 11 12 13 12 13 13 13 13 13 14 15 14 12 11 11 10 10 10 10 9 9 9 9 9 9 10 10 10 10 10 11 11 11 11 11 10 10 10 10 10
6 5 5 5 6 6 6 6 6 6 5 5 4 5 5 4 4 4 4 4 4 4 4 4 4 4 4 4 4 4 4 5 5 5 5 5 4 4 4 4 4 4 3 4 4 4 4 5 5 5 6 7 7 9 11 12 13 14 16 17 16 16 16 16 17 18 19 19 17 14 14 14 13 13 13 13 13 12 12 12 12 12 13 13 13 13 13 13 14 14 13 13 13 13 12 12 11
6 6 6 6 6 5 5 5 5 4 4 4 5 6 5 4 3 3 4 3 4 4 4 4 4 5 5 5 5 6 6 6 6 7 7 7 7 7 6 6 6 6 6 6 5 5 4 4 4 4 4 4 5 7 10 13 16 18 20 20 21 21 21 21 22 24 25 23 20 19 19 18 18 17 17 17 17 17 16 16 16 18 19 18 17 17 16 17 17 17 16 16 16 15 15 15 14
6 5 5 5 4 4 4 4 4 4 4 4 5 7 6 4 4 3 4 4 4 4 4 4 4 4 4 5 5 6 6 6 7 7 8 8 9 9 9 9 9 9 9 9 9 8 6 5 5 5 5 4 3 4 5 9 15 20 23 24 23 23 24 25 27 28 28 27 26 26 25 24 23 22 22 22 21 21 21 21 22 24 24 23 22 21 21 20 20 20 20 20 19 19 19 18 18
4 4 4 3 3 3 3 4 4 4 5 5 6 8 7 5 5 4 4 4 4 4 4 4 4 4 4 4 4 4 4 5 5 5 6 7 8 9 9 10 10 9 9 10 12 11 9 7 7 8 8 7 6 4 4 4 7 12 17 21 24 26 30 32 32 34 36 37 36 35 34 33 30 27 25 25 25 25 24 25 26 28 28 27 26 25 25 24 23 24 23 22 22 22 22 22 22
3 3 3 3 3 4 4 5 5 6 7 6 7 8 7 5 5 5 4 5 5 5 5 5 5 5 5 5 4 4 4 4 5 5 5 5 6 7 8 8 8 8 7 8 10 12 12 10 10 10 10 9 8 6 5 4 4 4 7 11 15 22 30 36 43 50 51 50 47 44 41 37 33 30 27 26 26 27 28 29 29 30 29 28 28 27 26 25 25 24 24 24 24 24 24 24 24
3 3 3 4 4 5 5 6 6 7 7 7 7 7 6 5 5 5 5 5 5 5 5 6 6 5 5 5 5 5 5 5 5 5 5 5 6 6 7 7 7 7 7 7 8 9 10 12 12 12 12 11 10 8 7 6 5 5 4 5 6 9 14 22 37 49 52 52 48 41 36 32 29 26 24 24 26 28 29 30 30 29 28 27 26 25 24 24 23 23 23 24 24 24 24 25 26
4 4 4 5 5 5 6 7 7 7 7 7 7 7 6 6 6 6 6 6 6 6 6 6 6 6 6 6 6 6 6 6 6 6 6 7 7 7 7 7 7 8 8 8 8 8 9 10 10 11 13 13 12 10 8 8 7 6 6 6 5 6 6 7 15 23 29 32 28 24 22 20 19 17 17 18 21 24 26 26 25 24 24 22 19 18 17 17 17 17 18 20 21 21 21 23 26
4 5 5 5 6 7 7 7 8 7 7 8 7 7 7 7 7 7 7 6 7 7 7 7 7 7 7 7 7 6 6 7 7 7 8 10 11 10 10 9 9 9 9 9 9 9 9 10 10 12 13 15 15 13 11 10 8 8 8 8 8 8 8 8 11 12 13 13 12 12 13 11 10 9 8 9 12 15 17 16 16 15 15 13 11 10 9 9 9 9 10 12 14 15 16 19 25
6 6 6 7 7 8 9 9 9 9 9 9 9 9 8 8 8 8 8 7 8 8 8 8 8 8 8 8 7 7 7 7 7 8 11 14 15 15 13 12 12 12 12 12 11 11 11 12 13 14 15 18 20 19 16 13 12 11 10 11 12 13 14 13 15 18 18 16 17 17 11 7 7 6 6 6 8 9 10 9 9 9 9 8 7 7 7 7 7 7 7 7 9 10 10 12 18
7 7 8 9 9 9 11 10 11 11 10 10 10 10 10 9 9 9 9 9 9 9 9 9 9 9 9 9 9 9 9 9 9 10 14 18 19 18 16 15 15 15 15 15 15 14 13 13 14 15 17 20 23 25 25 27 31 33 34 38 38 38 38 35 36 38 33 29 33 30 17 9 8 7 7 7 7 8 8 9 9 8 8 7 7 7 7 7 7 7 7 7 8 8 8 8 9
10 10 10 11 11 11 12 12 12 12 12 12 11 11 10 10 10 9 9 9 9 10 11 11 11 12 12 12 12 11 12 12 12 12 14 17 20 21 19 18 17 17 19 20 19 19 18 17 16 17 18 20 24 28 31 39 48 52 56 62 64 61 56 53 55 57 53 53 54 41 23 15 13 11 11 12 14 17 17 16 14 13 11 9 7 8 8 8 8 8 8 8 9 8 9 8 8
13 13 13 13 13 13 13 13 13 13 13 12 12 11 11 11 10 10 10 10 10 11 11 11 11 12 12 12 12 12 13 14 14 15 15 19 26 30 28 26 26 25 25 26 27 26 24 23 22 22 23 23 26 29 33 39 45 48 52 54 54 54 50 45 47 52 57 59 50 34 22 18 17 16 16 19 25 31 33 30 27 24 20 14 10 9 9 9 9 9 9 9 10 10 10 9 9
16 15 15 14 15 14 14 14 13 13 13 12 13 12 11 11 10 10 10 10 11 11 11 11 11 11 12 12 13 13 14 15 15 16 16 19 28 38 42 43 45 44 43 45 48 48 43 37 32 28 27 27 28 32 37 41 44 46 47 46 44 44 44 43 41 42 42 38 30 26 24 22 21 18 18 24 33 40 42 39 35 31 26 19 13 10 11 11 10 10 10 9 10 10 10 10 10
17 17 16 16 16 15 14 14 13 12 12 12 12 11 10 9 9 9 10 11 11 11 12 12 13 13 14 14 15 15 15 15 15 15 16 17 22 37 53 63 68 66 62 57 60 70 72 65 56 46 38 34 32 33 36 42 49 53 54 54 53 51 51 52 50 46 41 34 31 31 31 29 26 23 24 30 35 35 33 30 27 24 21 17 14 12 12 12 11 10 10 10 10 10 11 10 10
18 18 17 17 15 15 14 13 12 11 10 10 10 10 9 9 9 10 11 12 13 13 13 13 14 15 16 17 17 17 17 17 17 16 16 17 17 24 36 46 51 48 42 36 38 50 63 73 77 72 63 55 48 42 39 41 47 56 64 67 71 72 68 65 61 56 51 46 43 42 41 38 31 25 25 27 28 28 28 26 23 20 17 14 12 12 12 13 13 12 11 10 10 10 11 11 11
19 18 17 16 15 13 12 11 10 10 9 9 11 12 11 10 11 12 13 13 14 14 14 15 15 16 16 17 16 16 17 17 18 18 18 18 18 18 20 22 24 23 22 21 21 25 32 44 64 83 89 84 79 71 62 56 54 56 61 66 76 84 87 87 82 75 67 61 60 59 57 54 48 38 34 35 39 43 44 42 39 35 29 24 19 16 15 15 15 15 14 12 11 10 10 11 11
18 17 16 14 13 11 11 11 12 12 11 11 13 14 13 11 11 13 14 14 15 15 16 16 16 16 15 15 15 15 15 15 16 16 17 18 19 20 20 20 21 22 22 22 23 22 22 24 38 74 103 102 99 99 93 86 80 75 71 71 77 82 85 89 92 92 86 77 74 74 73 72 70 65 60 59 60 60 57 54 53 52 48 42 36 31 26 24 23 23 22 19 17 14 11 11 11
17 15 14 12 11 12 13 14 15 14 13 13 14 14 14 12 11 14 15 15 16 16 17 16 15 15 14 14 14 14 14 15 16 16 17 18 18 19 20 21 21 22 23 23 25 24 25 24 24 49 88 103 101 101 102 101 98 96 94 92 91 87 84 84 87 93 95 89 81 78 78 78 77 77 77 75 71 69 66 62 59 59 58 54 51 48 43 38 35 33 32 31 28 24 19 15 14
14 13 12 12 13 15 16 15 15 13 12 13 14 15 16 15 13 15 16 16 17 16 16 16 15 14 14 14 15 15 16 17 18 20 21 21 22 22 22 22 22 22 24 24 26 26 26 28 24 28 56 88 102 101 100 101 101 100 100 99 99 97 96 95 94 98 101 100 95 91 88 82 75 71 69 72 74 74 74 74 72 68 64 59 53 52 53 51 46 39 35 35 34 33 30 24 20
13 12 13 15 16 16 15 14 14 12 10 12 14 16 18 17 14 16 16 17 17 16 16 15 14 14 15 17 18 20 21 21 23 24 25 25 26 27 27 26 26 25 26 26 26 27 25 26 28 25 30 55 85 100 102 101 101 101 100 98 98 97 98 97 94 97 101 102 101 102 101 90 77 66 61 65 71 72 73 74 76 74 69 62 52 46 49 54 53 48 40 34 33 33 34 33 29
14 15 18 18 16 14 12 12 13 12 11 12 15 17 17 17 17 17 18 18 18 17 16 15 15 16 18 21 22 23 25 25 27 28 27 27 27 27 27 26 27 27 28 28 27 28 28 26 27 28 30 50 80 95 99 101 100 100 101 101 100 97 97 98 93 87 87 88 87 90 93 90 84 77 69 70 76 73 67 67 72 71 63 59 56 48 47 52 53 51 47 39 34 34 34 35 34
18 20 21 20 17 15 13 14 14 13 13 14 16 17 17 18 19 19 19 19 18 18 16 16 18 21 23 25 26 27 27 27 29 31 29 29 30 30 31 30 30 29 27 25 23 25 31 35 38 37 38 60 91 100 98 101 101 99 100 101 102 101 99 100 96 86 81 82 82 82 84 85 88 92 88 87 91 82 69 65 68 69 59 52 57 53 50 57 56 48 46 42 38 38 37 37 38
22 23 22 21 22 21 19 19 18 17 15 15 17 19 18 18 19 19 19 19 19 18 18 20 23 25 27 28 28 28 27 27 30 33 33 34 37 41 47 48 46 43 33 20 15 17 21 31 49 61 60 67 88 99 100 101 100 101 101 99 101 103 101 98 93 91 93 96 94 91 91 88 88 97 100 100 102 97 87 77 71 70 60 50 60 61 51 59 64 54 47 46 45 46 46 45 44
25 25 23 23 25 25 24 23 22 21 19 18 20 21 19 19 19 19 19 19 20 19 20 24 25 27 28 28 28 28 32 40 47 52 51 44 42 47 54 55 53 48 34 19 14 14 14 16 28 50 70 81 89 96 100 102 100 99 100 100 100 101 102 98 88 85 89 95 99 100 99 98 94 96 98 99 101 101 100 97 90 83 65 51 67 74 57 58 69 67 61 64 66 63 61 60 56
26 24 24 24 25 26 25 24 24 24 23 22 22 22 21 21 21 21 22 21 21 23 25 27 27 28 27 25 25 29 42 56 64 68 60 42 32 33 37 36 34 32 26 21 21 21 20 18 15 19 35 55 72 82 87 88 86 84 85 91 95 95 96 94 83 77 78 84 94 100 100 101 100 98 97 96 98 99 99 101 102 96 75 64 80 88 70 59 66 75 79 84 86 79 70 66 62
26 24 24 24 25 27 26 25 25 25 25 24 24 23 22 23 23 24 24 24 26 29 30 29 28 27 24 23 23 26 35 41 46 48 42 29 23 22 22 22 24 29 33 33 33 34 34 34 32 26 21 24 33 41 45 45 45 48 54 63 72 74 75 75 71 69 74 80 88 96 100 100 100 100 100 98 98 100 100 100 101 92 73 69 87 100 88 69 62 69 79 84 85 84 75 65 59
27 26 26 26 26 27 26 26 27 27 28 26 25 24 23 25 27 27 27 29 32 33 31 28 26 23 22 23 22 23 26 27 28 29 25 22 22 23 28 35 43 49 51 47 45 46 47 45 44 42 38 33 28 25 23 21 20 22 25 32 39 42 46 53 58 59 65 76 87 95 100 100 99 99 100 101 101 101 100 100 98 85 67 61 74 90 90 78 66 61 63 65 66 71 74 67 58
29 28 28 29 29 27 27 28 29 31 31 28 26 25 25 27 29 30 31 35 36 34 30 27 24 24 24 24 24 25 27 27 27 27 28 32 37 46 57 62 63 62 58 55 55 54 53 51 51 51 50 47 42 39 35 32 30 24 20 20 22 27 32 39 48 52 54 62 75 88 96 99 100 100 100 100 100 100 100 101 100 91 77 64 63 68 70 69 66 61 54 49 49 53 63 70 62
29 29 29 30 30 29 29 30 32 34 33 31 30 27 26 29 31 33 36 38 37 33 28 25 24 25 27 27 28 28 29 33 42 51 57 64 72 82 88 83 76 69 61 55 55 56 56 55 56 57 56 52 50 49 48 46 46 43 40 37 36 38 40 40 43 46 47 49 55 67 78 84 89 95 99 100 101 101 100 100 101 99 91 78 66 60 58 55 55 61 59 46 45 48 53 69 69
30 29 30 31 31 30 30 31 33 35 34 35 35 30 28 32 34 36 39 39 35 30 26 24 24 26 29 29 30 37 47 59 75 87 90 92 95 99 100 96 92 88 81 71 62 58 58 57 58 59 59 58 59 59 59 57 57 58 57 56 54 51 49 46 43 41 42 44 44 48 55 60 64 70 80 91 99 103 103 101 100 100 100 94 78 64 60 59 54 61 68 53 45 48 51 69 77
32 32 33 33 32 31 33 35 35 36 36 37 38 32 29 34 38 39 40 38 31 27 26 24 25 28 29 32 45 63 75 82 92 101 103 101 101 101 100 100 100 100 98 93 84 75 69 65 64 63 64 66 66 65 65 62 61 63 65 65 65 63 60 54 46 39 36 35 36 38 39 42 45 47 53 64 78 90 98 102 101 98 100 101 94 78 67 68 64 62 67 61 52 51 51 64 78
Wind_Speed
17 17 17 17 17 18 18 18 20 19 18 16 14 17 19 22 24 25 27 28 28 28 30 30 30 31 31 32 32 31 31 31 31 33 33 30 29 29 27 27 26 26 26 25 23 22 22 21 21 20 20 19 19 19 18 18 18 18 18 18 18 17 18 18 18 18 18 18 18 19 19 19 18 18 18 19 19 19 19 20 21 21 22 23 24 24 25 26 27 28 29 31 32 33 35 36 37
18 18 18 19 19 19 19 19 20 18 18 16 15 19 22 24 25 26 28 28 29 30 31 32 32 32 33 33 33 33 31 30 31 32 33 32 31 29 26 25 24 23 23 22 20 20 19 19 18 18 18 17 17 17 16 16 16 16 16 16 16 16 17 17 17 18 18 18 18 18 18 18 18 18 18 18 18 18 18 18 19 20 20 21 21 22 23 24 25 26 26 27 28 29 31 32 33
18 19 19 19 19 20 20 20 20 18 19 17 17 22 24 26 26 27 28 29 31 31 32 32 33 33 34 34 34 34 30 29 31 32 32 32 32 29 25 23 22 21 21 19 19 18 17 17 17 16 16 16 15 15 15 15 15 15 15 15 15 16 17 17 17 18 18 18 18 18 19 19 19 19 18 18 19 19 18 19 19 19 20 20 20 21 21 22 23 24 24 25 26 27 28 29 30
19 20 20 20 20 20 20 20 19 19 19 18 20 24 25 26 27 28 29 30 32 33 33 33 34 34 35 35 35 33 30 29 32 33 33 32 31 27 23 20 20 20 19 18 18 17 17 16 16 16 16 16 16 16 16 16 16 16 16 16 16 16 17 17 18 18 19 19 19 20 20 20 20 20 20 19 19 20 19 20 20 20 20 20 20 20 21 21 22 22 23 23 24 25 26 28 28
19 20 20 21 21 20 20 19 19 19 19 21 22 24 26 27 27 28 29 31 32 33 34 35 35 35 35 35 34 32 31 32 33 34 33 31 29 25 21 19 19 19 19 18 17 17 17 17 17 17 17 17 17 17 17 17 17 17 17 17 18 18 18 19 19 20 20 21 21 21 22 22 22 22 22 21 21 21 21 21 21 21 21 21 21 21 21 21 21 22 22 22 23 23 24 26 27
20 20 21 21 21 20 20 18 18 18 19 23 23 24 27 28 28 28 29 32 33 34 35 36 37 36 35 33 32 31 32 33 33 33 32 30 26 23 20 18 19 20 19 18 18 18 18 18 18 18 19 19 19 19 19 19 19 19 19 19 20 20 20 20 21 21 21 22 23 23 24 24 24 24 24 24 24 23 23 23 23 22 22 22 23 23 23 22 22 22 22 22 22 22 23 24 26
20 21 21 22 21 21 20 18 19 20 21 24 25 25 28 29 30 29 30 32 33 35 36 36 37 36 33 32 32 32 34 34 33 32 30 28 24 22 20 20 20 21 20 20 20 20 20 20 20 20 21 21 21 21 21 21 21 21 21 22 22 22 22 22 23 23 23 23 24 25 25 25 25 26 26 26 26 26 25 25 25 25 25 24 24 24 24 24 24 23 23 23 23 23 23 24 25
21 22 21 22 21 20 20 19 20 22 23 26 27 27 29 31 32 31 32 33 34 35 35 36 36 35 32 33 33 32 34 34 32 30 28 25 23 22 22 22 22 22 22 22 22 22 22 22 23 23 23 23 24 24 24 24 24 24 24 24 24 25 25 25 25 25 26 26 26 27 27 27 27 27 28 28 28 28 27 27 27 27 27 27 27 27 27 26 26 25 25 25 25 24 24 24 26
23 23 22 23 22 21 21 20 22 24 25 27 28 29 31 32 33 33 34 34 35 34 34 34 34 34 33 33 33 33 34 33 31 29 27 24 24 23 24 23 23 24 24 24 24 24 25 25 25 25 25 26 26 26 26 27 27 27 27 27 27 28 28 28 29 29 29 29 29 29 30 30 30 30 30 30 30 30 30 30 29 29 29 29 29 29 29 29 29 28 28 27 27 27 27 27 28
23 24 23 23 23 22 22 22 24 26 28 29 30 31 33 33 33 34 35 34 34 33 33 33 34 34 34 33 32 33 33 32 30 28 26 25 25 25 25 25 25 26 27 26 27 27 28 28 28 28 28 28 29 29 29 29 29 30 30 30 30 30 31 31 32 32 32 32 32 33 33 33 33 33 32 32 32 32 32 32 32 32 32 32 32 31 31 31 31 31 31 30 30 30 29 30 30
23 23 24 24 24 24 24 24 26 27 29 30 31 33 33 33 34 34 35 34 33 32 32 33 34 34 34 33 31 32 32 31 30 28 26 26 26 27 27 28 28 28 28 29 30 30 30 31 31 31 31 31 31 32 32 32 32 32 33 33 33 33 34 34 35 35 35 35 36 36 36 36 36 36 35 35 35 35 35 35 35 35 35 34 34 34 34 34 34 34 33 33 33 33 32 33 33
23 24 24 24 24 24 25 26 27 28 30 31 32 33 33 33 34 34 34 33 32 32 33 34 35 35 34 31 31 32 31 31 29 28 28 29 29 29 30 30 31 31 31 32 33 33 33 33 33 34 34 34 34 35 35 35 35 35 35 35 36 36 36 37 37 37 38 38 39 39 39 39 39 39 39 38 38 38 38 38 38 38 38 38 37 37 37 37 37 36 36 36 36 36 36 36 36
24 24 25 25 24 25 26 27 28 28 29 31 33 33 33 33 33 33 33 33 32 32 33 35 35 35 33 31 31 31 30 30 30 30 31 32 32 32 32 33 33 34 35 35 36 36 36 36 36 37 37 37 37 37 37 37 37 38 38 38 38 39 39 39 39 40 40 41 41 42 42 42 42 42 42 42 42 42 42 42 42 42 42 41 41 40 40 40 40 40 39 39 39 39 39 39 38
25 25 25 25 25 26 27 28 29 29 29 31 32 32 33 33 33 32 33 33 32 33 33 34 35 34 32 32 32 31 30 30 31 32 33 34 34 35 35 35 36 36 37 38 39 39 39 39 40 40 40 40 40 40 40 40 40 40 40 41 41 41 41 42 42 42 42 43 43 44 44 45 45 45 45 45 45 45 45 45 45 45 45 45 44 44 44 43 43 43 43 43 43 43 42 42 41
25 25 25 25 25 26 28 29 30 30 29 30 30 30 31 32 32 31 33 33 32 33 34 34 35 34 33 33 32 31 31 32 33 34 35 36 37 37 38 38 39 39 40 41 42 42 42 42 42 43 43 43 43 43 42 42 42 42 43 43 43 43 44 44 44 44 45 45 46 46 47 47 47 48 48 48 48 48 48 48 48 48 47 47 47 47 47 46 46 46 46 46 47 46 46 45 45
25 25 25 25 26 27 28 29 30 30 29 29 28 28 28 30 30 30 32 33 33 34 34 34 35 34 34 34 33 32 33 33 33 34 35 37 38 39 39 39 40 41 42 43 44 44 45 45 45 45 46 45 45 45 45 45 45 45 45 45 45 45 46 46 46 47 47 47 48 48 49 49 50 50 50 50 50 50 50 50 50 50 50 50 50 50 50 49 49 49 49 50 50 50 49 49 49
24 24 24 25 26 27 28 28 29 28 28 27 27 27 27 28 29 30 31 33 33 35 35 34 34 35 34 33 33 33 33 32 33 33 35 36 37 38 38 39 40 41 42 43 44 45 46 47 47 47 47 46 46 47 48 48 48 48 48 48 48 48 48 48 49 49 49 50 50 50 51 52 52 52 53 53 53 53 53 53 53 53 53 53 53 52 52 52 52 52 52 52 53 53 52 52 52
23 23 23 24 25 25 26 26 27 26 25 25 26 26 27 28 30 30 31 32 33 34 34 34 33 33 33 32 33 34 33 32 33 35 36 37 38 39 40 40 41 41 42 43 44 45 46 47 46 46 45 46 47 49 50 50 49 49 50 50 50 50 50 51 51 51 52 52 52 53 53 54 54 55 55 55 55 55 55 55 56 56 56 55 55 55 54 54 54 54 54 55 55 55 55 55 55
22 22 22 22 23 23 24 25 25 24 24 25 26 27 28 30 31 30 30 30 32 33 32 30 29 30 32 34 35 35 34 33 34 36 37 38 39 41 42 42 43 43 44 44 45 45 46 46 46 46 46 46 48 49 50 50 50 51 51 52 52 52 52 53 53 54 54 54 55 55 56 56 57 57 57 57 57 57 57 58 58 58 57 57 57 56 56 56 56 56 56 57 57 57 57 57 57
22 22 22 21 22 23 24 25 25 25 26 26 27 27 28 30 30 30 29 29 30 31 30 29 28 29 31 34 36 37 37 36 36 36 37 39 40 41 42 43 44 45 45 45 46 46 46 47 48 48 48 48 49 50 51 51 52 53 53 53 53 53 54 54 55 55 56 57 57 57 58 58 59 59 59 59 59 59 59 59 59 59 59 59 59 58 58 58 58 58 58 58 58 58 59 59 59
22 23 23 23 23 24 26 26 26 27 27 27 26 26 28 29 29 29 30 29 28 28 30 31 31 30 31 32 36 38 39 38 38 37 37 38 39 41 42 43 44 45 45 45 46 47 48 48 49 50 50 50 51 52 52 53 53 54 53 53 54 55 55 55 56 56 57 58 58 59 59 60 60 61 61 61 61 61 61 61 61 61 61 61 61 61 60 60 59 59 59 59 59 59 60 60 60
23 24 24 24 23 24 25 26 26 26 26 26 25 26 27 27 27 28 30 31 30 29 32 33 33 33 33 34 35 38 39 40 40 39 39 39 39 41 42 43 44 45 45 46 47 48 49 49 50 51 51 52 53 53 54 54 55 55 55 55 56 56 56 56 56 57 58 58 59 59 60 60 61 62 62 63 63 63 63 63 63 63 63 63 63 62 62 62 61 61 61 60 60 60 60 60 61
21 22 22 22 21 21 22 23 24 24 24 25 25 27 27 26 27 29 31 32 33 33 34 35 36 36 37 37 37 38 40 41 43 43 43 43 43 43 44 44 45 46 46 46 47 49 50 51 51 52 52 53 53 54 54 55 55 56 57 57 56 56 56 57 58 58 59 59 59 60 60 61 62 62 63 63 63 63 63 63 64 64 64 63 63 63 63 63 63 63 62 62 62 61 61 61 61
19 20 20 20 20 20 21 22 23 24 24 25 27 28 29 29 28 29 31 33 35 36 36 37 39 40 41 42 42 43 44 46 47 49 49 49 49 49 49 48 48 48 46 46 49 50 51 51 52 53 54 54 53 54 55 55 56 57 57 57 56 56 57 58 58 59 59 59 60 61 61 62 62 63 63 63 63 63 64 64 64 64 64 64 64 64 64 64 64 64 64 63 63 63 62 62 62
19 19 19 20 21 22 23 23 24 25 25 26 28 31 31 31 31 31 32 34 37 38 39 41 42 44 45 46 47 48 48 49 50 51 52 52 52 52 52 52 52 51 49 48 49 49 50 51 53 53 54 54 55 55 56 55 55 56 57 56 55 56 57 57 58 58 59 59 60 61 62 62 62 63 63 63 64 64 64 64 64 65 65 64 64 64 65 65 64 65 64 64 64 63 63 63 63
20 20 20 21 22 23 24 25 25 26 27 27 29 32 33 33 33 32 33 35 38 40 42 43 45 47 48 48 49 49 49 49 49 50 51 51 51 51 51 51 52 52 52 51 50 49 49 50 50 51 53 54 55 55 55 55 54 55 55 55 55 56 56 57 58 58 58 59 60 62 62 62 63 63 63 64 64 64 65 65 65 66 66 66 65 65 65 65 65 64 64 64 64 64 64 64 64
21 22 22 22 23 25 26 26 27 28 28 28 30 32 34 34 33 33 35 37 39 42 43 45 46 47 48 49 49 49 48 47 47 47 48 49 49 50 51 50 50 51 53 53 54 54 53 52 51 52 53 54 54 54 54 54 53 53 54 54 54 54 55 56 57 57 57 58 60 62 62 62 62 63 63 63 63 64 64 65 65 65 65 66 65 65 64 64 63 63 63 63 64 64 64 64 64
21 24 25 25 25 26 28 29 29 30 29 27 28 31 33 34 34 35 37 39 40 42 43 44 45 46 47 47 47 47 47 46 45 45 45 45 45 46 47 47 46 47 48 50 52 54 55 56 57 57 56 55 54 54 54 53 53 53 53 53 53 54 55 56 55 56 57 59 60 61 61 62 62 62 62 62 62 63 63 63 63 64 64 64 64 63 63 62 62 62 62 62 62 63 63 63 64
23 25 27 28 28 27 28 29 29 29 28 26 25 29 32 33 35 37 38 39 40 41 41 42 43 44 45 45 45 45 45 46 45 44 43 43 42 42 43 42 42 42 44 45 46 48 51 53 55 57 57 57 57 55 54 53 53 52 52 52 53 54 55 55 54 55 57 58 60 60 60 60 60 61 61 61 62 62 62 61 61 61 61 61 62 61 61 60 60 61 61 61 61 62 62 63 63
24 24 25 27 28 28 26 27 29 29 29 28 27 29 33 33 35 36 38 39 39 40 40 41 42 42 43 43 44 44 44 45 45 44 43 42 42 41 41 41 41 42 43 44 45 47 48 49 50 52 54 56 58 58 57 55 53 52 52 53 54 55 54 54 54 55 57 58 58 58 59 60 60 61 61 61 61 61 61 60 59 59 59 60 60 60 60 60 60 60 60 61 61 61 61 62 62
23 24 24 24 25 26 26 26 27 29 30 31 31 33 36 35 35 37 37 38 39 40 41 41 42 42 42 43 43 43 43 44 44 43 43 42 42 41 41 42 43 44 44 45 46 48 49 49 50 51 53 55 56 58 59 59 58 56 54 54 55 54 54 54 54 55 56 57 57 58 59 60 61 62 62 62 61 61 61 60 59 59 59 60 59 59 59 59 59 59 60 60 60 60 60 61 62
23 23 24 25 26 27 28 29 29 30 31 32 33 36 39 38 38 39 40 40 41 41 42 43 43 43 43 43 43 43 44 44 44 45 45 44 44 43 43 43 44 44 44 45 46 47 49 51 52 53 54 56 57 57 58 59 60 59 58 57 56 55 54 54 54 54 55 56 57 58 60 61 62 63 63 62 62 61 61 60 59 60 60 60 59 59 59 59 59 59 59 59 59 59 59 59 60
25 26 27 29 30 29 30 31 31 32 33 33 34 38 41 41 41 41 41 42 42 42 43 44 44 44 45 44 44 44 45 45 46 47 47 47 46 46 46 46 46 46 46 47 47 47 49 51 52 53 55 57 58 58 58 58 59 59 60 59 59 57 56 55 55 55 56 57 58 59 61 62 62 63 63 62 62 61 61 60 60 60 60 60 60 60 59 58 57 57 56 55 55 55 56 56 56
27 29 30 31 32 32 31 31 32 33 34 35 36 40 42 42 41 41 41 42 42 43 44 45 45 45 46 46 46 46 46 46 47 48 48 47 47 47 47 48 48 48 49 50 50 50 50 51 53 54 55 57 59 60 60 59 59 59 59 59 59 59 58 58 57 57 57 58 59 60 61 61 62 63 63 62 61 61 60 60 60 59 59 59 58 57 56 54 52 51 50 50 50 50 50 50 51
31 31 32 32 32 33 34 34 34 34 35 37 38 40 42 42 41 41 41 42 43 44 45 46 46 46 48 49 49 49 48 48 49 49 48 47 47 47 48 49 49 49 51 52 52 52 53 54 54 55 56 58 60 61 62 62 61 60 59 59 59 60 60 59 58 59 60 61 61 61 61 61 61 61 61 60 60 59 58 58 57 57 56 55 53 51 49 48 47 47 46 46 47 46 45 45 45
34 34 34 35 34 35 35 35 35 36 37 39 40 40 41 41 42 42 42 43 45 46 47 47 48 48 50 51 51 51 51 51 51 50 49 48 49 50 51 52 51 51 51 52 53 54 54 55 56 56 57 58 60 61 62 63 63 62 61 61 61 61 61 61 63 64 65 64 63 62 61 60 59 59 58 58 57 57 56 56 55 54 53 52 50 48 47 47 47 46 46 46 46 46 45 45 46
35 35 36 37 36 35 36 36 37 38 39 42 43 43 43 43 43 44 45 46 47 48 49 49 49 51 53 54 54 54 54 54 54 52 50 50 51 53 55 55 55 54 54 55 55 56 56 56 57 57 58 59 60 61 62 61 60 59 58 58 58 59 60 60 62 64 66 67 65 62 62 61 60 59 59 57 57 56 56 55 54 53 53 52 51 50 48 48 48 47 47 47 47 47 47 47 48
37 37 38 38 37 36 36 37 39 40 42 44 45 46 46 47 47 49 50 51 51 52 52 51 52 54 56 56 57 57 56 55 54 53 52 52 54 56 57 58 57 57 58 58 58 58 58 58 58 59 59 59 60 62 62 61 59 58 57 57 57 57 59 60 62 65 67 68 67 66 65 65 64 63 61 60 59 58 57 56 55 55 54 54 53 52 51 50 49 48 48 48 48 48 48 48 48
39 39 39 38 38 38 37 38 41 43 44 45 46 47 48 49 50 52 53 54 55 56 56 57 57 58 58 58 58 57 55 54 53 53 53 53 55 57 59 60 60 60 60 61 61 62 62 61 61 61 61 61 62 63 64 63 62 62 61 61 60 60 62 63 65 67 69 69 69 69 68 67 67 66 65 64 63 61 60 59 59 58 57 56 55 54 53 53 52 51 51 50 50 49 48 48 48
39 39 39 38 40 41 41 41 43 45 46 46 48 48 49 50 51 53 55 56 57 58 60 61 61 61 61 60 58 57 56 56 55 55 54 53 54 57 59 60 60 61 61 61 63 64 65 65 65 64 63 63 64 65 66 66 66 66 66 65 65 65 65 65 65 67 68 69 69 68 68 68 68 68 67 66 64 63 63 63 62 61 60 58 57 56 55 55 56 55 54 53 52 51 50 49 49
38 38 39 40 41 43 45 45 45 45 47 49 50 50 50 51 53 54 56 57 58 60 61 62 63 63 62 61 60 60 60 60 60 60 60 58 56 56 58 60 61 62 62 63 64 65 67 68 69 69 68 67 67 67 68 68 69 69 68 68 68 68 68 67 66 66 67 68 67 67 67 67 68 67 67 65 64 63 63 63 63 62 61 60 59 58 57 57 57 58 57 56 55 53 52 52 51
39 39 40 42 43 45 46 47 47 47 48 50 53 54 53 52 54 56 57 58 59 61 62 63 63 63 63 63 64 64 64 64 64 64 64 64 62 62 63 64 66 66 67 67 66 66 67 69 71 72 73 72 71 71 71 71 71 71 71 70 70 70 69 69 68 68 67 67 67 66 67 67 67 67 65 64 63 62 62 62 62 61 61 60 60 60 59 58 58 59 60 60 58 56 55 54 53
41 42 43 44 46 46 47 48 49 49 49 51 54 56 55 54 55 58 59 60 62 63 64 64 65 66 67 68 69 70 70 70 69 69 68 68 68 69 69 70 72 72 72 71 70 70 69 69 70 72 74 76 76 76 75 75 74 74 74 74 74 73 72 72 71 69 68 68 67 67 67 66 66 66 66 65 63 62 62 61 61 60 60 61 61 62 61 61 60 60 60 61 61 60 59 57 56
43 44 45 46 47 47 48 49 51 51 52 54 55 57 59 59 59 62 63 64 65 66 66 67 69 70 72 73 75 76 77 77 77 77 76 75 75 75 75 75 75 76 76 75 74 74 73 72 71 69 72 76 79 80 79 79 78 78 77 77 76 76 76 76 75 73 71 70 70 69 68 67 67 67 66 65 64 63 61 61 61 61 61 61 61 62 62 63 63 62 61 61 61 62 61 60 59
45 46 47 47 48 49 51 53 54 54 55 56 57 61 64 65 64 66 67 68 69 70 71 72 74 75 77 78 79 80 80 81 82 82 82 83 83 82 82 81 80 80 79 78 76 75 74 74 74 72 70 73 78 80 78 76 75 76 77 77 78 79 80 81 81 79 77 75 74 73 72 71 70 70 69 67 65 64 62 60 60 60 61 61 62 61 61 62 62 62 62 62 61 61 61 61 60
46 46 46 48 50 52 54 56 56 57 57 58 62 66 68 70 69 69 72 74 74 74 76 77 78 80 81 82 83 83 83 84 84 84 84 84 84 84 84 84 83 83 82 81 80 79 77 76 76 76 73 72 74 78 78 74 70 68 68 70 71 73 76 78 79 80 79 78 76 75 75 73 73 73 73 73 71 68 66 63 61 60 61 62 62 63 63 62 62 62 62 62 62 62 61 61 60
46 47 48 50 54 56 57 58 58 59 59 60 65 69 71 74 75 74 76 78 77 77 78 80 82 84 85 86 86 87 87 86 86 85 84 83 82 81 82 82 82 82 82 83 83 82 81 79 77 77 77 76 75 76 79 78 74 70 67 66 67 68 70 72 74 75 76 76 75 74 75 75 74 74 75 77 76 73 69 66 63 62 61 61 62 63 64 64 63 63 62 62 62 62 62 62 61
47 50 53 56 57 59 59 60 61 62 63 64 69 72 74 78 80 79 78 77 77 79 81 84 86 88 89 90 90 90 89 87 86 84 83 82 81 80 80 80 80 80 80 80 81 81 80 79 78 77 78 78 77 77 81 80 77 74 72 71 70 70 70 71 73 74 75 76 76 76 76 77 77 77 77 79 80 78 73 69 66 64 62 61 61 62 63 64 64 64 63 62 62 62 62 62 62
50 54 58 61 63 63 64 65 66 67 67 68 71 75 77 80 81 80 78 77 79 82 85 88 89 91 92 92 91 89 88 87 85 83 82 82 81 81 80 79 78 76 74 75 76 77 77 76 76 76 76 77 78 80 83 82 78 75 74 74 73 73 71 71 72 75 76 77 78 78 77 78 79 80 80 81 82 81 77 73 70 66 64 63 63 62 62 63 64 64 63 62 62 62 62 62 61
54 59 62 64 65 66 68 69 70 71 71 69 71 75 77 79 80 79 79 81 83 85 88 90 91 92 92 91 89 88 87 85 83 81 80 79 79 79 78 78 76 75 75 74 72 72 73 73 73 73 74 76 79 83 86 86 83 81 78 76 75 75 73 71 71 73 76 78 79 79 79 80 80 81 82 83 83 82 80 77 74 70 66 64 64 63 62 62 62 62 62 61 60 61 61 60 59
56 60 61 62 64 67 69 70 71 73 75 74 73 75 77 79 80 80 81 84 85 87 89 91 92 92 91 90 88 86 84 82 80 78 78 78 77 76 76 76 76 77 76 72 67 64 65 66 68 72 74 76 79 83 86 88 87 86 83 80 77 77 76 73 71 72 74 78 79 79 81 82 82 82 82 82 82 81 79 77 75 71 67 65 65 64 62 60 60 60 58 57 57 58 58 56 55
57 60 61 63 65 68 70 71 71 73 76 77 76 77 78 79 80 81 83 86 87 88 90 91 92 92 90 88 86 83 81 79 79 79 80 79 77 75 74 73 71 69 65 59 55 53 53 52 54 59 65 71 77 83 87 89 91 90 87 83 79 77 76 75 73 72 72 75 77 77 79 79 80 81 82 83 82 80 78 76 73 70 67 66 66 65 63 60 59 58 56 54 53 54 54 53 52
59 60 62 64 67 69 71 71 71 73 77 78 78 80 84 83 82 84 86 88 89 88 89 91 91 89 87 85 82 80 79 78 78 78 78 76 73 69 65 61 57 53 49 46 44 43 43 42 42 43 46 53 61 69 76 81 85 88 87 84 82 79 76 74 72 71 71 72 74 76 76 77 77 77 79 81 83 82 80 76 73 70 68 68 67 67 65 62 60 58 56 53 52 52 53 53 52
60 62 64 66 67 69 70 72 73 75 78 80 79 84 88 86 85 88 89 89 88 88 90 91 89 86 83 80 79 77 76 75 73 71 68 65 61 56 52 49 47 45 43 42 40 39 39 39 38 37 38 40 45 49 54 58 64 70 74 77 78 78 78 75 73 72 71 71 72 74 75 76 77 76 76 77 79 80 79 77 75 73 71 70 69 69 68 66 63 60 59 57 54 52 52 52 52
62 64 66 68 69 70 71 73 76 77 79 83 84 88 90 88 87 90 90 89 89 90 92 90 86 82 79 78 76 73 70 67 64 61 57 54 51 48 47 47 45 43 41 39 38 37 37 37 36 34 34 36 37 39 40 41 45 49 53 58 62 65 68 71 73 73 73 71 72 74 75 77 78 77 75 75 75 75 75 75 75 75 75 74 72 71 71 71 68 65 63 62 60 56 53 51 51
63 65 66 68 70 71 72 74 76 77 80 85 89 91 92 89 89 91 91 90 90 91 91 87 82 78 77 75 71 65 60 56 54 53 51 49 48 48 48 48 46 42 38 36 34 33 33 32 30 29 29 29 29 30 30 31 32 33 34 37 40 45 50 56 62 67 70 70 71 72 74 76 77 77 76 75 75 74 73 73 73 73 75 77 76 75 74 75 74 70 66 64 63 60 55 52 51
65 67 68 69 70 71 73 75 75 77 81 85 89 94 94 90 90 92 90 89 89 90 88 82 78 75 72 68 61 54 50 49 49 49 49 49 48 48 48 48 47 45 42 39 35 32 29 27 26 26 26 27 27 28 28 27 27 27 26 26 28 31 35 40 47 55 62 66 68 70 71 73 74 75 76 75 75 75 75 75 74 73 73 74 76 77 77 77 76 73 69 66 64 62 58 54 52
68 69 71 72 73 75 78 79 78 79 82 85 89 96 96 91 91 92 89 88 89 87 83 78 75 71 65 57 49 45 45 46 47 48 47 47 46 46 47 47 47 46 45 43 40 37 34 31 29 28 28 29 29 29 29 28 28 28 28 27 27 28 30 33 38 44 51 58 63 67 70 71 72 73 75 76 77 77 78 78 77 76 74 73 74 75 76 77 75 73 71 69 67 64 60 56 53
Wind_Direction
271 271 270 269 269 270 271 273 275 277 282 285 285 276 268 264 263 264 266 270 274 278 280 282 283 284 285 286 287 287 288 290 289 286 285 282 279 278 278 279 278 276 274 272 272 270 267 267 267 267 268 269 270 270 271 272 272 274 276 279 282 284 285 286 287 288 289 289 289 289 288 288 287 287 286 284 284 282 280 278 276 274 271 270 269 267 265 263 262 261 259 257 256 256 256 256 256
267 268 267 268 268 269 271 271 273 278 280 283 282 273 268 267 267 269 272 275 277 278 279 281 283 285 285 286 286 286 287 288 284 281 282 282 281 280 280 278 273 270 269 269 267 264 263 263 264 265 266 268 268 269 270 271 272 273 276 280 282 284 286 288 289 290 290 291 291 291 291 290 290 289 288 288 287 286 284 282 281 279 277 275 273 271 269 267 266 264 262 260 258 257 257 257 257
263 264 265 266 267 268 269 269 274 278 278 279 274 269 269 270 271 273 274 276 278 280 281 282 284 284 284 285 285 285 286 284 280 279 280 280 280 280 279 275 269 266 265 265 263 262 263 263 264 265 267 268 269 270 271 272 274 276 279 281 283 285 287 289 290 290 290 291 291 292 292 293 293 292 291 291 290 290 289 287 286 284 283 281 279 277 275 273 271 269 267 264 262 261 260 260 259
261 262 262 264 265 265 266 268 272 274 275 273 267 268 270 271 272 273 275 278 281 283 284 283 283 283 283 284 284 285 284 280 279 279 278 278 278 278 277 271 265 263 262 261 261 262 263 264 266 267 269 270 272 273 274 276 278 280 282 283 284 286 288 289 289 289 290 290 290 291 292 292 293 292 292 291 291 291 290 289 288 287 286 285 283 281 280 278 277 275 273 271 268 266 265 265 264
263 264 265 265 265 265 266 266 268 270 269 266 264 267 269 270 272 275 278 280 282 282 283 283 282 283 283 284 284 283 280 278 278 278 277 276 275 276 273 267 262 261 259 259 260 262 263 264 266 267 269 271 273 274 276 278 279 281 282 283 283 285 286 286 287 287 288 288 288 289 289 290 290 290 291 291 290 290 290 289 288 287 286 285 284 283 282 281 279 278 277 276 274 272 270 271 271
268 269 269 269 270 270 270 270 270 269 266 266 266 268 270 273 275 278 280 281 282 283 283 284 284 284 284 283 280 279 278 276 275 273 273 272 272 272 268 264 261 258 257 258 260 261 263 264 266 267 269 271 272 274 275 276 277 278 279 280 280 281 281 282 283 284 284 285 286 286 287 287 287 287 287 288 288 289 289 288 288 287 286 285 284 283 282 281 280 279 279 278 277 275 273 272 273
272 272 272 272 273 273 274 275 273 269 268 269 269 270 274 276 277 278 279 280 282 283 284 285 284 283 282 279 277 278 278 275 272 269 267 267 267 266 264 261 259 257 258 259 260 261 263 265 266 267 269 270 271 273 274 274 274 275 276 276 277 278 278 278 279 280 281 281 282 283 283 284 284 284 285 285 285 286 286 286 286 285 285 284 283 282 282 281 280 279 278 278 277 276 274 272 272
277 276 275 274 274 274 273 273 272 271 271 272 273 274 274 276 277 278 278 279 281 283 284 283 283 282 280 277 278 280 278 274 271 267 265 265 265 263 262 261 259 259 260 261 261 262 263 264 265 267 268 270 271 272 273 273 273 273 274 274 275 275 276 276 276 276 277 277 278 278 279 280 280 281 281 281 282 282 283 283 283 283 282 281 281 281 280 280 279 278 277 277 276 275 274 272 271
280 280 279 278 277 275 274 273 272 273 273 275 277 276 276 277 279 280 280 282 283 283 282 281 280 278 277 277 280 281 277 272 269 266 264 265 264 263 264 262 261 261 262 262 263 264 265 265 266 267 268 269 271 272 273 273 273 273 273 273 274 274 274 274 273 273 273 273 274 274 275 275 276 276 277 277 278 278 279 279 279 279 279 279 278 278 277 277 277 276 276 275 275 274 273 271 270
282 282 280 279 279 278 276 275 275 276 276 278 279 278 280 281 281 282 283 284 284 283 280 278 276 276 277 278 281 280 275 272 269 266 265 266 266 266 266 265 264 264 264 264 266 267 267 267 268 269 269 270 271 272 273 273 273 273 273 273 272 272 272 271 271 271 271 271 271 271 271 271 271 272 272 272 273 273 274 274 274 274 275 275 275 274 274 274 274 273 273 273 273 272 271 270 269
281 280 280 279 280 279 278 277 278 278 279 281 280 281 284 284 284 284 285 285 284 282 281 279 278 278 278 279 282 279 274 270 268 268 268 268 268 268 268 268 267 266 267 267 267 267 268 268 269 270 271 271 271 272 272 272 272 272 272 271 271 270 270 270 269 269 269 269 269 269 269 269 269 269 269 269 269 269 269 270 270 270 270 270 270 270 270 270 270 270 270 270 270 269 269 268 269
279 277 278 278 278 277 278 278 278 280 282 282 283 285 287 286 286 286 286 286 284 283 284 284 282 281 278 279 280 277 273 270 269 270 271 271 270 269 269 270 269 269 270 269 269 268 269 270 270 271 271 271 271 271 271 271 271 270 270 270 269 269 269 269 268 268 268 268 268 268 268 268 268 268 268 268 267 267 267 267 266 267 266 267 267 267 267 267 267 268 268 267 267 267 266 267 268
281 279 279 279 279 279 279 280 281 283 283 284 288 290 290 288 287 287 287 286 286 286 287 287 285 283 280 278 278 276 273 272 273 274 274 272 271 271 271 271 271 271 271 271 271 270 270 271 270 271 271 271 270 270 270 270 270 270 270 269 269 269 268 268 268 268 268 268 268 268 268 268 268 268 267 267 267 266 266 265 265 265 265 265 264 264 265 265 265 266 266 265 265 265 265 265 266
284 283 283 283 284 284 285 286 287 290 287 287 291 292 292 291 289 289 288 288 290 291 290 289 288 285 281 279 280 279 276 276 277 275 273 272 272 272 272 272 272 272 273 273 273 273 272 272 272 272 272 271 271 271 270 270 270 270 270 269 269 269 269 268 268 268 268 268 268 268 268 268 267 267 267 267 266 266 266 265 264 264 264 264 264 264 263 264 264 264 264 264 264 264 264 264 264
287 287 288 289 289 289 289 291 292 294 291 290 292 292 292 291 290 291 290 291 292 292 291 290 289 286 283 281 284 284 281 280 278 276 276 276 276 276 276 275 275 275 275 276 276 276 276 275 274 274 273 273 273 273 272 271 270 270 270 270 270 269 269 269 269 269 269 269 269 269 268 268 268 267 266 266 266 266 266 266 265 265 265 264 264 264 264 263 263 263 263 263 264 263 264 264 264
290 290 292 292 292 291 292 293 293 293 293 292 293 293 292 291 290 291 290 290 290 289 289 288 287 286 286 288 289 287 284 283 283 283 283 283 282 281 281 280 279 278 278 279 279 279 279 278 277 276 276 276 276 276 274 272 271 271 271 271 270 270 270 270 269 269 269 269 269 269 269 268 268 268 268 267 266 266 266 266 266 266 266 265 265 265 264 264 264 263 263 263 263 263 263 263 263
294 295 296 296 295 294 294 294 293 294 295 295 294 293 291 288 287 287 287 288 287 288 287 286 288 289 292 292 289 286 286 286 285 283 282 281 281 282 282 281 280 279 279 279 279 279 279 279 279 279 279 279 278 277 275 274 273 273 272 272 271 271 271 270 270 269 269 269 269 269 269 269 269 269 269 268 268 267 266 266 266 266 266 266 266 266 265 265 265 264 264 264 264 264 264 263 263
300 300 300 298 297 297 297 296 296 297 295 293 292 290 288 284 284 284 284 286 286 285 286 287 291 294 294 289 284 282 282 282 280 278 277 277 277 278 279 279 278 277 277 276 276 276 277 278 279 280 280 279 277 276 275 275 275 274 273 272 271 271 271 270 270 269 269 269 269 269 269 269 269 269 268 268 268 267 267 266 266 266 266 266 266 267 266 266 266 266 265 265 265 265 265 264 264
303 301 300 298 298 298 296 294 294 293 291 291 290 288 286 283 283 283 283 285 285 284 287 291 293 292 288 283 280 279 279 279 279 278 277 276 276 276 277 277 277 277 276 275 275 275 275 276 276 276 276 275 274 274 274 274 274 273 272 272 272 271 271 270 269 269 268 268 268 268 267 268 268 268 268 267 267 267 267 267 267 267 267 267 267 267 267 267 267 267 266 266 266 266 266 266 265
303 300 298 297 296 296 293 291 293 292 291 291 290 289 287 284 285 286 286 287 288 288 290 290 287 285 284 284 282 281 281 281 280 279 279 278 277 277 277 277 277 277 277 277 276 275 274 274 274 273 273 273 272 272 273 272 272 272 272 272 272 271 270 269 268 268 268 267 267 266 266 266 266 266 267 267 267 267 267 267 267 267 267 267 267 267 267 267 267 267 267 267 267 267 267 267 266
303 300 299 299 298 298 296 295 296 295 294 293 292 290 289 289 291 293 291 290 292 292 289 287 285 284 285 285 284 283 283 282 281 280 280 280 280 279 279 279 278 279 279 279 277 276 275 274 274 273 273 272 272 272 272 272 272 272 272 272 271 270 269 268 268 267 267 267 266 266 266 265 265 266 266 266 266 266 266 266 267 267 267 267 267 267 267 267 268 268 268 268 268 268 268 268 268
301 299 300 300 299 298 297 297 297 296 296 296 295 293 291 294 296 295 293 292 292 291 288 288 287 286 285 284 283 283 283 283 282 281 280 279 278 278 278 278 278 278 278 278 277 276 275 274 274 273 272 272 272 272 271 271 271 271 271 270 270 270 269 269 268 267 267 267 266 266 266 265 265 265 265 265 265 266 266 266 266 266 266 267 267 267 267 267 268 268 269 269 269 269 269 269 269
297 297 297 298 296 295 295 296 297 298 299 298 297 294 294 296 297 295 294 293 293 292 291 289 288 287 285 283 281 280 280 281 281 280 279 278 277 276 276 275 275 275 276 276 276 275 275 274 274 273 273 272 272 272 271 271 271 271 270 270 270 271 270 270 269 268 268 268 267 267 266 265 265 265 265 265 265 266 266 266 266 266 266 266 267 267 267 268 268 268 268 269 269 269 269 269 269
298 298 299 299 298 298 298 298 299 300 300 299 297 294 294 295 295 295 294 293 292 293 292 291 290 288 287 286 285 283 282 282 282 281 281 280 279 277 275 273 273 272 273 273 274 274 274 274 274 274 274 274 273 272 272 272 272 271 271 272 272 272 271 271 270 270 270 269 268 267 267 266 266 266 266 266 266 266 266 266 266 266 266 267 267 267 267 267 267 267 268 268 268 268 269 269 269
303 302 303 303 303 303 302 301 301 301 302 302 300 296 295 296 298 298 296 294 293 293 292 292 291 290 290 289 289 288 288 287 286 285 284 283 281 280 277 275 274 272 271 270 271 272 273 273 273 274 274 274 274 273 273 273 272 272 272 272 272 272 271 271 271 271 271 270 270 269 268 267 267 267 267 266 267 267 267 267 267 267 267 267 267 266 266 266 267 267 267 267 267 267 268 268 268
306 305 305 305 304 304 304 304 304 305 306 306 304 300 299 300 302 301 299 297 297 296 295 295 295 294 294 294 294 294 294 293 292 291 289 288 286 284 282 281 280 277 275 273 272 271 272 273 273 273 273 273 273 273 273 273 273 273 272 272 271 271 271 271 271 271 270 270 270 269 269 269 269 268 268 268 268 267 267 267 267 267 267 267 267 266 266 266 266 267 267 267 267 267 267 268 268
308 308 309 310 310 309 308 308 308 308 309 310 308 304 302 302 302 302 302 301 301 300 300 300 301 301 301 301 301 301 300 300 298 297 296 295 294 292 290 289 287 285 283 281 278 276 275 274 273 273 274 273 274 274 274 274 273 273 272 271 271 271 270 270 270 270 270 269 269 269 270 270 270 270 270 269 269 268 268 268 268 268 268 268 267 267 267 267 267 267 267 268 268 268 268 268 268
314 315 314 315 315 314 312 311 311 312 313 315 312 306 304 303 303 304 305 304 304 305 306 307 308 308 308 308 307 306 305 304 303 302 301 299 298 297 295 294 293 291 290 288 287 285 282 279 277 274 273 273 273 274 273 273 272 272 271 272 272 271 269 269 269 269 269 269 269 270 270 271 271 271 271 270 270 269 269 269 269 269 269 269 269 269 269 269 269 269 269 269 269 269 269 269 269
320 321 319 319 319 319 318 317 317 317 317 318 313 305 303 305 308 309 310 310 310 311 313 314 314 313 312 311 310 309 307 306 306 304 303 301 300 298 297 296 295 295 295 295 295 294 292 290 287 283 280 277 274 273 272 272 271 271 271 270 269 269 269 269 268 268 268 269 270 270 271 271 271 270 270 270 270 269 269 269 270 270 270 270 270 270 270 270 270 270 270 270 270 270 270 270 270
326 325 325 324 323 324 325 323 323 323 321 319 313 302 301 309 312 313 313 314 315 315 316 317 317 316 315 314 312 311 310 309 308 306 305 304 302 301 300 300 299 299 299 300 300 299 297 296 294 293 291 287 282 278 274 272 271 270 269 269 268 269 269 268 268 268 268 269 270 270 270 270 270 270 269 269 269 269 270 270 270 271 271 271 271 271 271 271 271 271 271 271 271 271 271 271 271
331 330 329 328 327 326 327 327 325 324 321 318 313 304 305 313 316 316 316 315 315 315 316 316 316 316 316 314 313 311 310 309 307 306 304 303 302 301 300 300 300 300 300 300 300 299 297 295 294 295 294 292 289 286 281 277 273 270 269 268 268 268 268 267 267 267 268 268 269 269 270 269 269 269 269 269 270 270 270 270 270 269 269 270 270 270 270 270 270 270 271 271 271 271 270 270 270
334 331 329 328 328 327 326 326 324 322 317 314 312 306 308 316 317 317 316 314 314 313 314 315 315 315 314 313 311 309 308 307 306 304 302 301 300 299 299 298 298 298 298 299 298 297 295 293 293 293 292 291 289 287 285 282 278 274 271 269 267 267 266 266 265 265 266 267 267 268 268 268 269 269 270 270 270 270 269 269 268 268 268 268 268 268 269 269 270 270 270 270 270 269 269 269 268
330 327 326 326 325 324 324 324 323 321 317 314 311 307 310 317 317 315 314 313 313 312 312 313 313 312 311 310 308 306 305 304 303 302 300 299 298 298 297 297 296 296 296 297 296 295 293 291 291 291 291 290 287 285 283 281 279 277 275 273 271 269 267 265 264 263 264 265 266 267 268 268 269 270 270 270 270 269 268 268 267 267 267 267 267 267 268 268 268 268 269 269 268 268 267 267 268
322 322 323 324 324 322 322 323 323 322 318 315 312 310 313 316 315 314 314 312 312 311 311 311 310 310 308 307 305 302 301 301 300 299 297 296 295 295 295 295 295 295 295 296 295 294 292 290 290 290 290 288 286 284 281 279 277 276 276 275 275 274 272 269 267 265 265 265 266 267 267 269 270 271 271 271 270 268 267 267 267 266 267 267 267 268 268 267 267 267 267 267 267 267 268 268 268
322 322 322 322 323 324 324 324 323 322 320 315 313 313 315 315 315 314 313 311 310 310 310 310 308 307 306 304 302 300 299 299 298 297 295 293 291 291 292 292 291 291 292 293 293 292 291 289 288 288 288 287 285 283 280 278 277 275 275 276 276 277 275 272 269 267 266 266 267 268 268 269 270 271 271 271 270 268 267 267 267 267 267 268 268 268 268 267 267 267 267 267 268 268 269 269 269
325 323 322 321 323 326 327 326 324 322 319 315 314 314 314 314 314 313 311 310 309 309 310 309 307 305 304 302 301 299 299 299 298 297 294 292 289 289 290 291 289 289 289 289 289 289 288 287 286 286 285 285 283 281 279 277 276 275 275 276 277 277 276 273 270 269 268 267 267 267 266 267 268 269 269 269 268 268 267 267 267 267 267 268 268 268 268 268 268 268 268 268 269 269 270 269 268
324 323 323 323 324 325 326 325 323 321 319 316 315 316 315 314 314 313 311 311 310 311 310 308 306 304 303 301 300 299 298 298 297 296 294 291 289 289 291 292 290 290 289 287 286 286 285 284 284 283 282 282 281 280 278 275 272 271 271 272 273 274 274 273 271 269 268 268 267 266 265 266 266 266 267 267 267 267 267 266 266 266 266 267 267 267 267 268 268 269 268 269 269 270 270 269 268
325 325 325 324 323 322 324 324 322 321 320 319 318 318 318 317 316 315 314 313 312 312 310 308 305 304 302 301 300 299 298 297 296 295 294 292 290 290 292 292 292 292 290 289 287 285 284 282 281 280 280 279 278 277 276 273 269 267 266 265 266 268 270 271 270 269 268 268 268 268 270 270 270 270 270 269 269 268 268 267 266 266 266 266 267 267 267 267 266 266 266 267 268 269 269 270 270
326 326 324 322 320 319 320 321 322 324 324 323 322 321 320 319 318 316 315 315 314 312 310 308 306 304 303 302 301 300 298 297 296 295 295 293 291 290 291 292 292 292 291 289 287 285 283 281 280 279 278 277 276 275 275 273 270 268 267 266 267 267 269 270 270 270 268 268 269 272 275 276 276 275 274 273 273 273 272 271 270 269 269 268 268 267 267 266 265 264 263 264 266 267 268 269 270
326 324 322 322 322 322 321 321 324 327 326 325 323 321 320 319 317 317 316 315 314 313 311 310 308 307 306 304 302 300 298 297 296 295 294 292 289 287 288 288 289 290 289 287 285 283 282 280 279 277 276 275 274 273 273 273 272 271 270 270 270 270 270 271 271 271 270 270 272 274 276 277 276 276 275 275 274 274 274 273 272 272 271 271 269 268 268 268 267 265 264 264 264 265 266 267 268
324 323 324 324 326 327 327 326 325 326 326 325 323 320 319 319 318 318 317 317 315 314 313 311 310 309 307 305 303 301 300 298 296 294 292 291 287 284 282 281 281 282 282 281 280 279 279 279 278 277 275 274 273 272 271 271 271 271 270 270 271 271 271 271 271 271 271 272 272 273 274 275 275 276 275 274 273 273 273 273 272 271 271 270 270 268 268 268 269 268 267 266 265 265 265 265 266
323 325 326 327 328 329 329 328 326 325 325 324 322 320 320 320 319 319 318 318 316 314 313 311 309 308 306 305 303 301 299 297 295 293 291 289 286 283 280 277 276 276 275 275 275 274 274 275 276 276 275 274 272 271 270 269 268 269 269 269 269 269 269 269 270 270 270 270 271 272 272 273 274 274 273 271 271 271 271 271 271 270 269 269 268 268 267 267 268 269 269 268 267 267 266 266 267
325 327 328 329 330 329 328 328 328 327 326 324 322 321 320 319 320 320 320 318 316 314 312 310 309 307 306 304 302 301 299 297 295 293 290 288 286 284 282 281 280 278 278 277 276 274 273 273 273 274 274 273 272 271 269 268 267 267 267 268 268 268 268 268 268 268 268 269 269 270 270 271 271 270 270 270 270 270 270 270 270 269 268 268 267 267 266 266 266 267 268 268 268 267 266 266 266
328 328 328 329 329 328 328 328 327 325 325 324 322 321 320 320 321 321 320 318 316 314 312 311 309 308 306 305 303 302 300 299 297 295 294 292 290 288 286 284 282 281 280 278 277 275 274 273 272 272 272 271 271 270 269 268 266 266 266 267 268 268 268 268 267 267 267 267 267 268 268 268 268 268 268 269 269 269 269 270 269 269 269 268 268 268 267 266 266 266 267 267 267 267 266 265 263
329 329 328 328 328 328 327 325 324 324 324 325 324 323 322 321 322 322 320 319 317 316 314 313 311 310 309 307 306 304 302 301 299 298 296 294 292 291 289 287 285 283 282 280 278 275 273 271 270 269 269 269 268 267 266 265 264 264 265 265 266 267 267 267 266 265 265 265 266 267 267 267 268 268 268 268 268 269 270 270 270 270 271 270 270 270 270 269 269 269 268 268 267 267 266 265 263
330 329 328 328 327 326 325 324 325 325 326 327 327 326 324 323 324 324 322 321 319 318 316 315 314 313 312 311 309 307 305 303 301 299 297 295 293 291 290 288 286 285 284 282 280 278 275 272 269 267 265 265 265 264 262 260 259 259 261 262 263 263 264 265 264 263 262 263 264 265 266 266 267 269 269 269 268 268 269 270 271 272 273 273 273 273 273 272 272 272 271 270 270 268 267 266 265
330 329 328 327 326 326 326 327 327 326 326 328 329 328 326 325 326 325 323 322 321 319 318 317 316 316 315 313 311 309 307 305 303 301 299 296 294 291 289 288 286 285 283 282 280 278 276 273 270 266 262 261 262 263 261 257 254 254 254 256 258 260 261 263 263 264 263 263 264 266 267 267 268 269 270 270 268 268 268 269 270 271 273 275 276 276 274 273 272 272 272 271 271 270 269 268 266
332 330 329 327 327 328 328 328 328 328 329 331 331 329 327 327 327 327 326 324 322 320 319 319 319 318 316 314 312 310 308 306 304 302 299 296 293 290 288 286 284 283 281 280 278 277 274 272 269 265 261 259 259 260 259 255 252 252 252 252 253 255 258 260 260 261 262 263 265 266 267 267 267 268 268 269 268 267 267 268 268 270 272 274 275 275 274 273 273 272 272 272 271 270 269 267 266
333 332 331 331 332 332 331 331 331 330 331 332 331 329 328 328 328 328 327 325 322 321 321 321 321 319 316 314 312 310 308 306 304 301 299 296 294 291 289 288 286 284 283 281 279 276 274 271 268 265 261 258 256 257 256 254 253 256 257 257 255 255 257 259 259 260 262 264 265 265 266 266 266 266 266 266 266 265 266 266 267 269 270 272 272 272 272 272 272 272 271 271 269 268 267 266 265
335 335 335 336 335 335 335 334 333 331 330 331 331 329 328 328 328 328 326 324 322 322 322 322 320 318 315 313 311 309 307 305 303 302 300 297 295 294 293 293 292 292 292 290 287 281 276 271 267 264 261 257 255 255 256 256 256 260 262 263 262 261 260 261 260 260 262 264 265 265 264 263 263 263 262 263 263 263 263 264 265 267 268 270 270 269 269 269 270 271 270 269 268 266 264 264 263
335 336 337 337 337 337 337 335 334 332 330 332 332 330 330 330 329 328 326 323 322 322 322 321 319 317 315 313 311 309 307 306 305 304 302 300 298 297 296 296 296 297 297 296 293 289 283 276 270 265 262 258 257 257 258 259 261 263 265 265 265 265 264 264 262 261 260 261 263 265 262 259 258 259 260 261 261 261 262 262 263 264 266 267 267 266 267 267 267 268 268 267 266 264 262 261 261
336 337 337 338 338 337 336 335 333 331 330 332 333 332 332 331 330 329 326 324 323 323 321 320 318 316 314 312 310 309 308 307 306 305 303 302 301 300 299 299 299 299 299 299 298 296 293 288 281 274 267 262 259 259 260 262 263 265 266 266 265 265 265 265 264 262 260 259 260 262 261 257 255 255 257 259 260 260 260 260 260 261 264 265 264 263 264 265 264 264 265 265 264 262 260 258 258
336 337 337 338 338 337 335 333 332 330 330 332 334 333 333 333 332 330 327 326 325 323 321 320 318 316 314 312 309 308 308 307 306 306 305 304 304 304 304 304 304 302 301 302 302 301 300 298 294 287 280 273 267 265 264 265 266 266 267 267 266 266 265 264 263 263 262 260 259 259 260 260 258 255 254 256 257 258 258 258 258 261 264 264 261 260 260 262 262 261 262 262 262 262 261 259 258
336 338 339 339 337 336 334 333 332 332 331 333 335 335 335 335 334 331 329 326 324 322 321 320 319 317 314 311 309 309 309 308 308 308 307 307 307 309 310 309 308 306 305 303 302 301 300 298 296 293 288 282 278 275 273 272 271 270 269 268 268 268 266 263 262 262 262 261 260 259 259 261 261 259 256 254 254 254 255 257 259 262 265 264 261 259 259 260 260 259 259 260 261 261 261 261 259
338 340 340 338 337 336 335 334 334 333 332 334 336 336 336 336 334 331 328 326 325 323 322 322 320 317 313 311 311 312 311 311 310 310 310 312 314 315 314 312 311 310 308 306 304 302 299 297 296 293 290 287 286 285 284 281 279 277 275 272 271 269 267 264 261 261 262 262 261 260 259 260 261 261 259 257 254 253 254 255 257 259 261 263 261 259 259 259 260 259 258 259 260 259 259 260 258
339 340 339 338 337 336 336 335 334 334 335 336 335 336 337 337 334 331 329 328 326 323 323 322 320 316 314 314 315 315 314 313 313 313 314 316 316 316 315 315 316 316 314 311 308 306 303 301 299 297 296 296 297 297 295 292 290 289 287 282 277 273 269 265 262 261 262 262 262 261 260 260 261 261 260 259 257 256 255 255 255 255 257 258 259 259 258 259 260 259 258 258 259 259 257 256 256
340 339 338 337 337 336 335 336 336 338 339 338 335 335 338 338 335 332 330 328 326 324 323 322 319 317 317 317 318 317 316 315 314 314 315 316 317 317 316 316 316 317 317 316 315 313 311 309 307 306 306 306 306 305 304 302 300 300 298 295 288 281 275 270 265 262 261 262 262 263 262 262 261 262 262 261 259 258 258 257 256 254 254 255 256 257 257 257 258 258 257 257 258 259 256 252 252
340 339 338 338 338 337 336 336 339 342 342 339 335 335 338 339 335 332 330 328 326 325 324 321 319 320 320 320 319 318 316 315 314 314 315 316 317 315 315 315 314 313 313 314 316 317 317 316 315 313 313 313 311 310 309 308 307 306 305 303 299 294 287 279 272 266 263 262 262 263 263 263 262 262 262 262 261 260 259 258 257 255 253 253 253 253 254 254 255 255 256 256 256 257 255 250 249